Weather History for Lake Charles Regional, LA

Change the Weather History Date:

Sunday, January 6, 2013

  Actual Average Record
Temperature  
Mean Temperature 52 °F 52 °F  
Max Temperature 59 °F 61 °F 87 °F (1913)
Min Temperature 44 °F 42 °F 19 °F (1924)
Degree Days  
Heating Degree Days 13 14  
Month to date heating degree days 91 84  
Since 1 July heating degree days 546 658  
Cooling Degree Days 0 0  
Month to date cooling degree days 0 0  
Year to date cooling degree days 0 0  
Moisture  
Dew Point 42 °F    
Average Humidity 73    
Maximum Humidity 93    
Minimum Humidity 53    
Precipitation  
Precipitation 0.01 in 0.18 in 3.31 in (1998)
Month to date precipitation 5.32 1.05  
Year to date precipitation 5.32 1.05  
Snow  
Snow 0.00 in 0.00 in T in (1971)
Month to date snowfall 0.0 0.0  
Since 1 July snowfall 0.0 T  
Snow Depth 0.00 in    
Sea Level Pressure  
Sea Level Pressure 30.29 in    
Wind  
Wind Speed 11 mph (NNE)    
Max Wind Speed 20 mph    
Max Gust Speed 24 mph    
Visibility 10 miles    
Events Rain    
T = Trace of Precipitation, MM = Missing Value Source: NWS Daily Summary

Daily Weather History Graph

Daily Weather History Graph

Search for Another Location

Airport:

Trip Planner

Search our weather history database for the weather conditions in past years. The results will help you decide how hot, cold, wet, or windy it might be!

Date:

Astronomy

Jan. 06, 2013 Rise Set
Actual Time 7:10 AM CST 5:28 PM CST
Civil Twilight 6:43 AM CST 5:54 PM CST
Nautical Twilight 6:14 AM CST 6:23 PM CST
Astronomical Twilight 5:45 AM CST 6:52 PM CST
Moon 1:34 AM CST (1/6) 12:48 PM CST (1/6)
Length of Visible Light 11h 10m
Length of Day
10h 18m
Waning Crescent, 33% of the Moon is Illuminated
Jan 6
Waning Crescent
Jan 11
New
Jan 18
First Quarter
Jan 26
Full
Feb 3
Last Quarter

Hourly Weather History & Observations

Time (CST) Temp. Windchill Dew Point Humidity Pressure Visibility Wind Dir Wind Speed Gust Speed Precip Events Conditions
12:53 AM 46.0 °F 42.5 °F 44.1 °F 93% 30.26 in 7.0 mi NNE 6.9 mph - 0.02 in Rain Light Rain
1:53 AM 46.0 °F 41.9 °F 43.0 °F 89% 30.26 in 10.0 mi North 8.1 mph - 0.00 in   Overcast
2:53 AM 46.0 °F 40.2 °F 43.0 °F 89% 30.26 in 10.0 mi North 12.7 mph - N/A   Overcast
3:53 AM 46.0 °F 40.6 °F 44.1 °F 93% 30.27 in 3.0 mi North 11.5 mph - N/A   Overcast
4:53 AM 46.0 °F 40.6 °F 43.0 °F 89% 30.26 in 10.0 mi North 11.5 mph - N/A   Overcast
5:53 AM 46.4 °F 41.5 °F 42.8 °F 87% 30.26 in 10.0 mi North 10.4 mph - N/A   Overcast
6:53 AM 46.0 °F 41.0 °F 43.0 °F 89% 30.30 in 10.0 mi North 10.4 mph - N/A   Overcast
7:53 AM 46.0 °F 39.9 °F 43.0 °F 89% 30.31 in 10.0 mi NNE 13.8 mph - N/A   Overcast
8:03 AM 46.4 °F 40.1 °F 42.8 °F 87% 30.28 in 10.0 mi NNE 15.0 mph - N/A   Overcast
8:53 AM 46.9 °F - 42.1 °F 83% 30.32 in 10.0 mi NNE 13.8 mph - N/A   Overcast
9:53 AM 50.0 °F - 42.1 °F 74% 30.33 in 10.0 mi NNE 13.8 mph - N/A   Mostly Cloudy
10:04 AM 50.0 °F - 42.8 °F 76% 30.31 in 10.0 mi NNE 15.0 mph 21.9 mph N/A   Scattered Clouds
10:53 AM 52.0 °F - 41.0 °F 66% 30.33 in 10.0 mi NNE 16.1 mph 24.2 mph N/A   Clear
11:53 AM 55.0 °F - 42.1 °F 62% 30.31 in 10.0 mi NNE 15.0 mph 19.6 mph N/A   Mostly Cloudy
12:53 PM 55.9 °F - 43.0 °F 62% 30.28 in 10.0 mi NNE 15.0 mph 20.7 mph N/A   Clear
1:53 PM 57.0 °F - 43.0 °F 59% 30.26 in 10.0 mi North 12.7 mph - N/A   Clear
2:53 PM 57.9 °F - 42.1 °F 56% 30.25 in 10.0 mi NNE 13.8 mph - N/A   Clear
3:53 PM 59.0 °F - 42.1 °F 53% 30.27 in 10.0 mi NNE 9.2 mph - N/A   Clear
4:53 PM 57.0 °F - 42.1 °F 57% 30.27 in 10.0 mi North 8.1 mph - N/A   Clear
5:53 PM 53.1 °F - 41.0 °F 64% 30.28 in 10.0 mi NNE 5.8 mph - N/A   Clear
6:53 PM 51.1 °F - 41.0 °F 68% 30.30 in 10.0 mi NNE 6.9 mph - N/A   Clear
7:53 PM 50.0 °F - 39.9 °F 68% 30.32 in 10.0 mi NNE 10.4 mph - N/A   Clear
8:53 PM 48.2 °F - 39.2 °F 71% 30.31 in 10.0 mi NNE 5.8 mph - N/A   Clear
9:53 PM 45.0 °F 41.8 °F 39.0 °F 80% 30.34 in 10.0 mi NE 5.8 mph - N/A   Clear
10:53 PM 45.0 °F 40.6 °F 39.9 °F 82% 30.34 in 10.0 mi NNE 8.1 mph - N/A   Clear
11:53 PM 46.0 °F 41.0 °F 39.0 °F 76% 30.34 in 10.0 mi NE 10.4 mph - N/A   Clear